Year,Month,Day,Hour,Minute,Value (Times are PST for windspeed in km/hr)
2009,09,05,00,00,0.00
2009,09,05,00,01,0.00
2009,09,05,00,02,0.00
2009,09,05,00,03,0.00
2009,09,05,00,04,0.00
2009,09,05,00,05,0.00
2009,09,05,00,06,0.00
2009,09,05,00,07,0.10
2009,09,05,00,08,0.00
2009,09,05,00,09,0.00
2009,09,05,00,10,0.00
2009,09,05,00,11,0.00
2009,09,05,00,12,0.00
2009,09,05,00,13,0.40
2009,09,05,00,14,0.10
2009,09,05,00,15,0.10
2009,09,05,00,16,0.00
2009,09,05,00,17,0.00
2009,09,05,00,18,0.00
2009,09,05,00,19,0.00
2009,09,05,00,20,0.00
2009,09,05,00,21,0.00
2009,09,05,00,22,0.00
2009,09,05,00,23,0.00
2009,09,05,00,24,0.00
2009,09,05,00,25,0.00
2009,09,05,00,26,0.00
2009,09,05,00,27,0.00
2009,09,05,00,28,0.00
2009,09,05,00,29,0.00
2009,09,05,00,30,0.00
2009,09,05,00,31,0.00
2009,09,05,00,32,0.00
2009,09,05,00,33,0.00
2009,09,05,00,34,0.00
2009,09,05,00,35,0.00
2009,09,05,00,36,0.00
2009,09,05,00,37,0.00
2009,09,05,00,38,0.00
2009,09,05,00,39,0.00
2009,09,05,00,40,0.00
2009,09,05,00,41,0.00
2009,09,05,00,42,0.00
2009,09,05,00,43,0.00
2009,09,05,00,44,0.00
2009,09,05,00,45,0.00
2009,09,05,00,46,0.50
2009,09,05,00,47,1.10
2009,09,05,00,48,0.10
2009,09,05,00,49,0.00
2009,09,05,00,50,0.00
2009,09,05,00,51,0.00
2009,09,05,00,52,0.10
2009,09,05,00,53,0.00
2009,09,05,00,54,0.00
2009,09,05,00,55,0.00
2009,09,05,00,56,0.00
2009,09,05,00,57,0.00
2009,09,05,00,58,0.00
2009,09,05,00,59,0.00
2009,09,05,01,00,0.00
2009,09,05,01,01,0.00
2009,09,05,01,02,0.00
2009,09,05,01,03,0.00
2009,09,05,01,04,0.10
2009,09,05,01,05,0.70
2009,09,05,01,06,0.20
2009,09,05,01,07,0.20
2009,09,05,01,08,1.00
2009,09,05,01,09,1.50
2009,09,05,01,10,0.00
2009,09,05,01,11,0.00
2009,09,05,01,12,0.00
2009,09,05,01,13,0.00
2009,09,05,01,14,0.00
2009,09,05,01,15,0.00
2009,09,05,01,16,0.00
2009,09,05,01,17,0.00
2009,09,05,01,18,0.00
2009,09,05,01,19,0.00
2009,09,05,01,20,0.00
2009,09,05,01,21,0.00
2009,09,05,01,22,0.00
2009,09,05,01,23,0.00
2009,09,05,01,24,0.00
2009,09,05,01,25,0.00
2009,09,05,01,26,0.00
2009,09,05,01,27,0.10
2009,09,05,01,28,0.00
2009,09,05,01,29,0.00
2009,09,05,01,30,0.20
2009,09,05,01,31,0.00
2009,09,05,01,32,0.00
2009,09,05,01,33,0.00
2009,09,05,01,34,0.00
2009,09,05,01,35,0.00
2009,09,05,01,36,0.00
2009,09,05,01,37,0.00
2009,09,05,01,38,0.00
2009,09,05,01,39,0.00
2009,09,05,01,40,0.00
2009,09,05,01,41,0.00
2009,09,05,01,42,0.30
2009,09,05,01,43,0.00
2009,09,05,01,44,0.00
2009,09,05,01,45,0.00
2009,09,05,01,46,0.00
2009,09,05,01,47,0.00
2009,09,05,01,48,0.00
2009,09,05,01,49,0.00
2009,09,05,01,50,0.00
2009,09,05,01,51,0.30
2009,09,05,01,52,0.00
2009,09,05,01,53,0.20
2009,09,05,01,54,0.10
2009,09,05,01,55,0.00
2009,09,05,01,56,0.00
2009,09,05,01,57,0.00
2009,09,05,01,58,0.00
2009,09,05,01,59,0.10
2009,09,05,02,00,0.00
2009,09,05,02,01,0.00
2009,09,05,02,02,0.00
2009,09,05,02,03,0.00
2009,09,05,02,04,0.00
2009,09,05,02,05,0.00
2009,09,05,02,06,0.00
2009,09,05,02,07,0.00
2009,09,05,02,08,0.00
2009,09,05,02,09,0.00
2009,09,05,02,10,0.00
2009,09,05,02,11,0.00
2009,09,05,02,12,0.00
2009,09,05,02,13,0.00
2009,09,05,02,14,0.00
2009,09,05,02,15,0.00
2009,09,05,02,16,0.00
2009,09,05,02,17,0.00
2009,09,05,02,18,0.00
2009,09,05,02,19,0.00
2009,09,05,02,20,0.00
2009,09,05,02,21,0.00
2009,09,05,02,22,0.00
2009,09,05,02,23,0.00
2009,09,05,02,24,0.00
2009,09,05,02,25,0.00
2009,09,05,02,26,0.00
2009,09,05,02,27,0.00
2009,09,05,02,28,0.00
2009,09,05,02,29,0.00
2009,09,05,02,30,0.00
2009,09,05,02,31,0.00
2009,09,05,02,32,0.00
2009,09,05,02,33,0.00
2009,09,05,02,34,0.00
2009,09,05,02,35,0.00
2009,09,05,02,36,0.00
2009,09,05,02,37,0.00
2009,09,05,02,38,0.00
2009,09,05,02,39,0.00
2009,09,05,02,40,0.00
2009,09,05,02,41,0.00
2009,09,05,02,42,0.00
2009,09,05,02,43,0.00
2009,09,05,02,44,0.00
2009,09,05,02,45,0.00
2009,09,05,02,46,0.00
2009,09,05,02,47,0.00
2009,09,05,02,48,0.00
2009,09,05,02,49,0.00
2009,09,05,02,50,0.00
2009,09,05,02,51,0.00
2009,09,05,02,52,0.00
2009,09,05,02,53,0.00
2009,09,05,02,54,0.00
2009,09,05,02,55,0.00
2009,09,05,02,56,0.00
2009,09,05,02,57,0.00
2009,09,05,02,58,0.00
2009,09,05,02,59,0.00
2009,09,05,03,00,0.00
2009,09,05,03,01,0.10
2009,09,05,03,02,0.00
2009,09,05,03,03,0.00
2009,09,05,03,04,0.00
2009,09,05,03,05,0.00
2009,09,05,03,06,0.00
2009,09,05,03,07,0.00
2009,09,05,03,08,0.00
2009,09,05,03,09,0.00
2009,09,05,03,10,0.00
2009,09,05,03,11,0.00
2009,09,05,03,12,0.00
2009,09,05,03,13,0.00
2009,09,05,03,14,0.40
2009,09,05,03,15,1.20
2009,09,05,03,16,2.00
2009,09,05,03,17,1.50
2009,09,05,03,18,1.70
2009,09,05,03,19,0.30
2009,09,05,03,20,0.20
2009,09,05,03,21,0.00
2009,09,05,03,22,0.00
2009,09,05,03,23,0.00
2009,09,05,03,24,0.00
2009,09,05,03,25,0.00
2009,09,05,03,26,0.10
2009,09,05,03,27,0.00
2009,09,05,03,28,0.00
2009,09,05,03,29,0.10
2009,09,05,03,30,0.00
2009,09,05,03,31,0.00
2009,09,05,03,32,0.00
2009,09,05,03,33,0.00
2009,09,05,03,34,0.40
2009,09,05,03,35,0.20
2009,09,05,03,36,0.00
2009,09,05,03,37,0.00
2009,09,05,03,38,0.10
2009,09,05,03,39,0.10
2009,09,05,03,40,0.20
2009,09,05,03,41,0.20
2009,09,05,03,42,0.10
2009,09,05,03,43,0.00
2009,09,05,03,44,0.00
2009,09,05,03,45,0.10
2009,09,05,03,46,0.10
2009,09,05,03,47,0.00
2009,09,05,03,48,0.60
2009,09,05,03,49,0.10
2009,09,05,03,50,1.30
2009,09,05,03,51,1.50
2009,09,05,03,52,0.40
2009,09,05,03,53,1.20
2009,09,05,03,54,0.80
2009,09,05,03,55,0.70
2009,09,05,03,56,0.40
2009,09,05,03,57,3.00
2009,09,05,03,58,3.00
2009,09,05,03,59,1.80
2009,09,05,04,00,3.50
2009,09,05,04,01,1.00
2009,09,05,04,02,0.00
2009,09,05,04,03,0.00
2009,09,05,04,04,0.00
2009,09,05,04,05,0.00
2009,09,05,04,06,0.00
2009,09,05,04,08,0.00
2009,09,05,04,09,0.10
2009,09,05,04,11,0.00
2009,09,05,04,15,0.00
2009,09,05,04,18,0.20
2009,09,05,04,21,0.00
2009,09,05,04,23,0.00
2009,09,05,04,26,0.00
2009,09,05,04,27,0.00
2009,09,05,04,29,0.00
2009,09,05,04,30,0.00
2009,09,05,04,31,0.00
2009,09,05,04,32,0.80
2009,09,05,04,33,0.10
2009,09,05,04,34,0.00
2009,09,05,04,35,0.00
2009,09,05,04,36,0.00
2009,09,05,04,37,0.00
2009,09,05,04,38,0.00
2009,09,05,04,39,0.00
2009,09,05,04,40,0.00
2009,09,05,04,41,0.00
2009,09,05,04,42,0.00
2009,09,05,04,43,0.00
2009,09,05,04,44,0.00
2009,09,05,04,45,0.00
2009,09,05,04,46,0.00
2009,09,05,04,47,0.00
2009,09,05,04,48,0.00
2009,09,05,04,49,0.00
2009,09,05,04,50,0.00
2009,09,05,04,51,0.00
2009,09,05,04,52,0.00
2009,09,05,04,53,0.00
2009,09,05,04,54,0.00
2009,09,05,04,55,0.00
2009,09,05,04,56,0.00
2009,09,05,04,57,0.30
2009,09,05,04,58,2.00
2009,09,05,04,59,0.80
2009,09,05,05,00,0.00
2009,09,05,05,01,0.00
2009,09,05,05,02,0.00
2009,09,05,05,03,1.40
2009,09,05,05,04,0.20
2009,09,05,05,05,2.70
2009,09,05,05,06,1.00
2009,09,05,05,07,0.00
2009,09,05,05,08,0.00
2009,09,05,05,09,0.50
2009,09,05,05,10,0.50
2009,09,05,05,11,0.00
2009,09,05,05,12,0.20
2009,09,05,05,13,0.00
2009,09,05,05,14,0.50
2009,09,05,05,15,0.50
2009,09,05,05,16,0.20
2009,09,05,05,17,0.10
2009,09,05,05,18,1.20
2009,09,05,05,19,3.20
2009,09,05,05,20,1.90
2009,09,05,05,21,0.20
2009,09,05,05,22,0.20
2009,09,05,05,23,0.00
2009,09,05,05,24,1.70
2009,09,05,05,25,2.50
2009,09,05,05,26,0.60
2009,09,05,05,27,0.70
2009,09,05,05,28,1.20
2009,09,05,05,29,2.10
2009,09,05,05,30,0.40
2009,09,05,05,31,1.40
2009,09,05,05,32,2.70
2009,09,05,05,33,3.30
2009,09,05,05,34,0.00
2009,09,05,05,35,0.20
2009,09,05,05,36,0.20
2009,09,05,05,37,0.00
2009,09,05,05,38,0.20
2009,09,05,05,39,0.50
2009,09,05,05,40,2.10
2009,09,05,05,41,0.90
2009,09,05,05,42,0.00
2009,09,05,05,43,0.50
2009,09,05,05,44,0.00
2009,09,05,05,45,0.00
2009,09,05,05,46,0.10
2009,09,05,05,47,0.40
2009,09,05,05,48,1.00
2009,09,05,05,49,2.00
2009,09,05,05,50,3.80
2009,09,05,05,51,2.60
2009,09,05,05,52,3.40
2009,09,05,05,53,4.50
2009,09,05,05,54,3.60
2009,09,05,05,55,2.80
2009,09,05,05,56,5.40
2009,09,05,05,57,7.00
2009,09,05,05,58,4.30
2009,09,05,05,59,4.70
2009,09,05,06,00,4.50
2009,09,05,06,01,7.30
2009,09,05,06,02,6.60
2009,09,05,06,03,6.40
2009,09,05,06,04,5.90
2009,09,05,06,05,8.90
2009,09,05,06,06,14.90
2009,09,05,06,07,11.90
2009,09,05,06,08,12.40
2009,09,05,06,09,7.70
2009,09,05,06,10,8.50
2009,09,05,06,11,6.70
2009,09,05,06,12,6.40
2009,09,05,06,13,12.30
2009,09,05,06,14,15.20
2009,09,05,06,15,15.20
2009,09,05,06,16,17.70
2009,09,05,06,17,15.30
2009,09,05,06,18,11.50
2009,09,05,06,19,12.70
2009,09,05,06,20,12.10
2009,09,05,06,21,10.90
2009,09,05,06,22,10.10
2009,09,05,06,23,7.60
2009,09,05,06,24,5.80
2009,09,05,06,25,5.10
2009,09,05,06,26,7.20
2009,09,05,06,27,9.50
2009,09,05,06,28,6.20
2009,09,05,06,29,9.50
2009,09,05,06,30,7.50
2009,09,05,06,31,9.00
2009,09,05,06,32,6.40
2009,09,05,06,33,5.90
2009,09,05,06,34,5.10
2009,09,05,06,35,6.90
2009,09,05,06,36,8.70
2009,09,05,06,37,7.10
2009,09,05,06,38,10.50
2009,09,05,06,39,10.70
2009,09,05,06,40,10.80
2009,09,05,06,41,10.90
2009,09,05,06,42,11.00
2009,09,05,06,43,9.80
2009,09,05,06,44,6.40
2009,09,05,06,45,4.50
2009,09,05,06,46,5.70
2009,09,05,06,47,5.40
2009,09,05,06,48,3.70
2009,09,05,06,49,9.10
2009,09,05,06,50,8.20
2009,09,05,06,51,7.90
2009,09,05,06,52,8.10
2009,09,05,06,53,7.10
2009,09,05,06,54,5.10
2009,09,05,06,55,9.30
2009,09,05,06,56,5.70
2009,09,05,06,57,4.50
2009,09,05,06,58,4.50
2009,09,05,06,59,5.80
2009,09,05,07,00,7.80
2009,09,05,07,01,4.20
2009,09,05,07,02,4.40
2009,09,05,07,03,5.20
2009,09,05,07,04,5.60
2009,09,05,07,05,4.90
2009,09,05,07,06,8.20
2009,09,05,07,07,2.30
2009,09,05,07,08,6.10
2009,09,05,07,09,11.40
2009,09,05,07,10,6.20
2009,09,05,07,11,4.70
2009,09,05,07,12,1.10
2009,09,05,07,13,4.20
2009,09,05,07,14,2.10
2009,09,05,07,15,1.80
2009,09,05,07,16,1.80
2009,09,05,07,17,2.80
2009,09,05,07,18,4.60
2009,09,05,07,19,8.20
2009,09,05,07,20,5.10
2009,09,05,07,21,4.20
2009,09,05,07,22,11.00
2009,09,05,07,23,6.80
2009,09,05,07,24,6.40
2009,09,05,07,25,7.50
2009,09,05,07,26,6.80
2009,09,05,07,27,10.70
2009,09,05,07,28,5.20
2009,09,05,07,29,6.40
2009,09,05,07,30,5.50
2009,09,05,07,31,8.00
2009,09,05,07,32,10.40
2009,09,05,07,33,5.50
2009,09,05,07,34,7.20
2009,09,05,07,35,10.40
2009,09,05,07,36,9.00
2009,09,05,07,37,9.70
2009,09,05,07,38,3.30
2009,09,05,07,39,5.40
2009,09,05,07,40,9.50
2009,09,05,07,41,7.70
2009,09,05,07,42,7.20
2009,09,05,07,43,6.60
2009,09,05,07,44,6.20
2009,09,05,07,45,9.00
2009,09,05,07,46,8.50
2009,09,05,07,47,5.60
2009,09,05,07,48,6.30
2009,09,05,07,49,10.10
2009,09,05,07,50,10.40
2009,09,05,07,51,9.50
2009,09,05,07,52,7.60
2009,09,05,07,53,8.10
2009,09,05,07,54,12.70
2009,09,05,07,55,8.70
2009,09,05,07,56,7.60
2009,09,05,07,57,11.30
2009,09,05,07,58,10.50
2009,09,05,07,59,11.10
2009,09,05,08,00,9.00
2009,09,05,08,01,13.30
2009,09,05,08,02,9.70
2009,09,05,08,03,10.50
2009,09,05,08,04,11.60
2009,09,05,08,05,11.50
2009,09,05,08,06,11.10
2009,09,05,08,07,11.40
2009,09,05,08,08,8.50
2009,09,05,08,09,8.20
2009,09,05,08,10,7.60
2009,09,05,08,11,8.80
2009,09,05,08,12,7.00
2009,09,05,08,13,9.50
2009,09,05,08,14,5.30
2009,09,05,08,15,4.10
2009,09,05,08,16,1.80
2009,09,05,08,17,5.70
2009,09,05,08,18,9.10
2009,09,05,08,19,6.60
2009,09,05,08,20,5.40
2009,09,05,08,21,5.40
2009,09,05,08,22,6.80
2009,09,05,08,23,7.50
2009,09,05,08,24,9.00
2009,09,05,08,25,5.70
2009,09,05,08,26,5.30
2009,09,05,08,27,7.00
2009,09,05,08,28,8.40
2009,09,05,08,29,6.60
2009,09,05,08,30,15.20
2009,09,05,08,31,17.70
2009,09,05,08,32,17.50
2009,09,05,08,33,12.50
2009,09,05,08,34,7.80
2009,09,05,08,35,8.00
2009,09,05,08,36,14.30
2009,09,05,08,37,9.40
2009,09,05,08,38,7.10
2009,09,05,08,39,9.30
2009,09,05,08,40,11.10
2009,09,05,08,41,8.20
2009,09,05,08,42,7.60
2009,09,05,08,43,15.70
2009,09,05,08,44,20.80
2009,09,05,08,45,9.80
2009,09,05,08,46,13.80
2009,09,05,08,47,13.40
2009,09,05,08,48,15.20
2009,09,05,08,49,7.20
2009,09,05,08,50,10.10
2009,09,05,08,51,13.40
2009,09,05,08,52,13.70
2009,09,05,08,53,15.10
2009,09,05,08,54,17.10
2009,09,05,08,55,6.30
2009,09,05,08,56,10.50
2009,09,05,08,57,9.10
2009,09,05,08,58,7.80
2009,09,05,08,59,5.00
2009,09,05,09,00,9.30
2009,09,05,09,01,8.20
2009,09,05,09,02,12.80
2009,09,05,09,03,12.50
2009,09,05,09,04,10.90
2009,09,05,09,05,9.90
2009,09,05,09,06,12.10
2009,09,05,09,07,12.70
2009,09,05,09,08,15.00
2009,09,05,09,09,23.10
2009,09,05,09,10,16.50
2009,09,05,09,11,16.20
2009,09,05,09,12,12.70
2009,09,05,09,13,18.70
2009,09,05,09,14,16.00
2009,09,05,09,15,13.00
2009,09,05,09,16,13.30
2009,09,05,09,17,13.90
2009,09,05,09,18,16.40
2009,09,05,09,19,16.60
2009,09,05,09,20,18.60
2009,09,05,09,21,16.80
2009,09,05,09,22,15.40
2009,09,05,09,23,17.70
2009,09,05,09,24,11.30
2009,09,05,09,25,10.90
2009,09,05,09,26,12.20
2009,09,05,09,27,17.70
2009,09,05,09,28,18.20
2009,09,05,09,29,16.60
2009,09,05,09,30,18.80
2009,09,05,09,31,10.50
2009,09,05,09,32,16.70
2009,09,05,09,33,9.50
2009,09,05,09,34,17.40
2009,09,05,09,35,16.50
2009,09,05,09,36,16.50
2009,09,05,09,37,18.70
2009,09,05,09,38,12.60
2009,09,05,09,39,14.70
2009,09,05,09,40,16.40
2009,09,05,09,41,13.50
2009,09,05,09,42,15.70
2009,09,05,09,43,15.00
2009,09,05,09,44,15.90
2009,09,05,09,45,20.80
2009,09,05,09,46,18.40
2009,09,05,09,47,17.10
2009,09,05,09,48,23.70
2009,09,05,09,49,22.30
2009,09,05,09,50,19.50
2009,09,05,09,51,20.40
2009,09,05,09,52,17.40
2009,09,05,09,53,13.50
2009,09,05,09,54,20.20
2009,09,05,09,55,15.70
2009,09,05,09,56,10.20
2009,09,05,09,57,18.30
2009,09,05,09,58,17.00
2009,09,05,09,59,13.80
2009,09,05,10,00,15.90
2009,09,05,10,01,19.50
2009,09,05,10,02,17.40
2009,09,05,10,03,8.90
2009,09,05,10,04,9.90
2009,09,05,10,05,13.80
2009,09,05,10,06,21.90
2009,09,05,10,07,18.40
2009,09,05,10,08,14.00
2009,09,05,10,09,13.00
2009,09,05,10,10,15.20
2009,09,05,10,11,14.30
2009,09,05,10,12,11.70
2009,09,05,10,13,12.10
2009,09,05,10,14,18.30
2009,09,05,10,15,12.10
2009,09,05,10,16,15.00
2009,09,05,10,17,16.30
2009,09,05,10,18,17.60
2009,09,05,10,19,16.40
2009,09,05,10,20,16.50
2009,09,05,10,21,16.30
2009,09,05,10,22,10.50
2009,09,05,10,23,14.90
2009,09,05,10,24,17.30
2009,09,05,10,25,18.70
2009,09,05,10,26,15.90
2009,09,05,10,27,17.60
2009,09,05,10,28,16.60
2009,09,05,10,29,11.80
2009,09,05,10,30,15.90
2009,09,05,10,31,15.60
2009,09,05,10,32,16.10
2009,09,05,10,33,10.70
2009,09,05,10,34,17.40
2009,09,05,10,35,9.30
2009,09,05,10,36,8.00
2009,09,05,10,37,6.80
2009,09,05,10,38,6.80
2009,09,05,10,39,14.60
2009,09,05,10,40,13.00
2009,09,05,10,41,8.10
2009,09,05,10,42,7.40
2009,09,05,10,43,9.80
2009,09,05,10,44,7.70
2009,09,05,10,45,4.30
2009,09,05,10,46,7.50
2009,09,05,10,47,10.20
2009,09,05,10,48,11.00
2009,09,05,10,49,8.70
2009,09,05,10,50,10.30
2009,09,05,10,51,10.40
2009,09,05,10,52,8.70
2009,09,05,10,53,10.80
2009,09,05,10,54,5.70
2009,09,05,10,55,9.80
2009,09,05,10,56,12.00
2009,09,05,10,57,12.90
2009,09,05,10,58,9.50
2009,09,05,10,59,10.00
2009,09,05,11,00,3.10
2009,09,05,11,01,3.70
2009,09,05,11,02,5.30
2009,09,05,11,03,6.40
2009,09,05,11,04,6.70
2009,09,05,11,05,8.50
2009,09,05,11,06,10.50
2009,09,05,11,07,15.50
2009,09,05,11,08,16.90
2009,09,05,11,09,12.90
2009,09,05,11,10,12.10
2009,09,05,11,11,17.70
2009,09,05,11,12,17.80
2009,09,05,11,13,12.70
2009,09,05,11,14,14.30
2009,09,05,11,15,19.20
2009,09,05,11,16,10.40
2009,09,05,11,17,10.50
2009,09,05,11,18,14.40
2009,09,05,11,19,13.10
2009,09,05,11,20,11.70
2009,09,05,11,21,7.20
2009,09,05,11,22,15.30
2009,09,05,11,23,10.50
2009,09,05,11,24,18.00
2009,09,05,11,25,8.60
2009,09,05,11,26,11.90
2009,09,05,11,27,11.90
2009,09,05,11,28,15.80
2009,09,05,11,29,9.80
2009,09,05,11,30,9.50
2009,09,05,11,31,8.20
2009,09,05,11,32,15.50
2009,09,05,11,33,14.70
2009,09,05,11,34,10.60
2009,09,05,11,35,8.30
2009,09,05,11,36,11.60
2009,09,05,11,37,13.00
2009,09,05,11,38,10.90
2009,09,05,11,39,10.40
2009,09,05,11,40,5.70
2009,09,05,11,41,3.80
2009,09,05,11,42,10.30
2009,09,05,11,43,6.80
2009,09,05,11,44,3.90
2009,09,05,11,45,4.30
2009,09,05,11,46,8.70
2009,09,05,11,47,3.80
2009,09,05,11,48,5.50
2009,09,05,11,49,0.90
2009,09,05,11,50,7.70
2009,09,05,11,51,6.40
2009,09,05,11,52,7.40
2009,09,05,11,53,6.60
2009,09,05,11,54,1.90
2009,09,05,11,55,3.50
2009,09,05,11,56,1.40
2009,09,05,11,57,2.10
2009,09,05,11,58,3.30
2009,09,05,11,59,3.50
2009,09,05,12,00,2.80
2009,09,05,12,01,6.20
2009,09,05,12,02,1.80
2009,09,05,12,03,0.30
2009,09,05,12,04,1.80
2009,09,05,12,05,3.10
2009,09,05,12,06,6.10
2009,09,05,12,07,4.10
2009,09,05,12,08,3.10
2009,09,05,12,09,8.10
2009,09,05,12,10,7.00
2009,09,05,12,11,6.10
2009,09,05,12,12,7.70
2009,09,05,12,13,5.60
2009,09,05,12,14,7.70
2009,09,05,12,15,7.40
2009,09,05,12,16,10.80
2009,09,05,12,17,5.80
2009,09,05,12,18,6.60
2009,09,05,12,19,5.40
2009,09,05,12,20,7.30
2009,09,05,12,21,9.60
2009,09,05,12,22,10.70
2009,09,05,12,23,4.70
2009,09,05,12,24,4.70
2009,09,05,12,25,4.90
2009,09,05,12,26,3.20
2009,09,05,12,27,4.90
2009,09,05,12,28,6.00
2009,09,05,12,29,5.10
2009,09,05,12,30,3.40
2009,09,05,12,31,7.20
2009,09,05,12,32,4.70
2009,09,05,12,33,3.70
2009,09,05,12,34,4.10
2009,09,05,12,35,3.80
2009,09,05,12,36,3.00
2009,09,05,12,37,1.30
2009,09,05,12,38,0.20
2009,09,05,12,39,4.10
2009,09,05,12,40,2.30
2009,09,05,12,41,3.50
2009,09,05,12,42,2.60
2009,09,05,12,43,3.40
2009,09,05,12,44,1.60
2009,09,05,12,45,3.40
2009,09,05,12,46,3.90
2009,09,05,12,47,5.40
2009,09,05,12,48,11.60
2009,09,05,12,49,7.80
2009,09,05,12,50,4.50
2009,09,05,12,51,2.40
2009,09,05,12,52,3.70
2009,09,05,12,53,1.00
2009,09,05,12,54,3.40
2009,09,05,12,55,0.00
2009,09,05,12,56,3.40
2009,09,05,12,57,0.40
2009,09,05,12,58,1.90
2009,09,05,12,59,2.60
2009,09,05,13,00,3.20
2009,09,05,13,01,0.30
2009,09,05,13,02,1.70
2009,09,05,13,03,3.20
2009,09,05,13,04,5.10
2009,09,05,13,05,2.30
2009,09,05,13,06,1.60
2009,09,05,13,07,4.40
2009,09,05,13,08,0.00
2009,09,05,13,09,2.80
2009,09,05,13,10,2.30
2009,09,05,13,11,4.60
2009,09,05,13,12,4.00
2009,09,05,13,13,0.80
2009,09,05,13,14,5.60
2009,09,05,13,15,8.90
2009,09,05,13,16,7.80
2009,09,05,13,17,12.10
2009,09,05,13,18,8.90
2009,09,05,13,19,16.80
2009,09,05,13,20,8.40
2009,09,05,13,21,3.00
2009,09,05,13,22,5.30
2009,09,05,13,23,6.30
2009,09,05,13,24,8.40
2009,09,05,13,25,12.30
2009,09,05,13,26,7.60
2009,09,05,13,27,4.30
2009,09,05,13,28,2.50
2009,09,05,13,29,11.40
2009,09,05,13,30,5.20
2009,09,05,13,31,11.70
2009,09,05,13,32,16.20
2009,09,05,13,33,12.10
2009,09,05,13,34,15.70
2009,09,05,13,35,10.10
2009,09,05,13,36,3.60
2009,09,05,13,37,7.30
2009,09,05,13,38,11.50
2009,09,05,13,39,11.70
2009,09,05,13,40,6.00
2009,09,05,13,41,8.20
2009,09,05,13,42,6.90
2009,09,05,13,43,13.10
2009,09,05,13,44,7.10
2009,09,05,13,45,5.10
2009,09,05,13,46,11.60
2009,09,05,13,47,2.80
2009,09,05,13,48,4.20
2009,09,05,13,49,10.60
2009,09,05,13,50,14.90
2009,09,05,13,51,7.90
2009,09,05,13,52,14.00
2009,09,05,13,53,11.40
2009,09,05,13,54,5.10
2009,09,05,13,55,9.90
2009,09,05,13,56,7.10
2009,09,05,13,57,7.30
2009,09,05,13,58,5.70
2009,09,05,13,59,10.00
2009,09,05,14,00,7.10
2009,09,05,14,01,8.50
2009,09,05,14,02,3.20
2009,09,05,14,03,16.30
2009,09,05,14,04,17.70
2009,09,05,14,05,4.10
2009,09,05,14,06,8.70
2009,09,05,14,07,7.10
2009,09,05,14,08,2.70
2009,09,05,14,09,5.30
2009,09,05,14,10,11.50
2009,09,05,14,11,10.30
2009,09,05,14,12,9.80
2009,09,05,14,13,1.50
2009,09,05,14,14,0.50
2009,09,05,14,15,3.80
2009,09,05,14,16,5.30
2009,09,05,14,17,5.10
2009,09,05,14,18,4.50
2009,09,05,14,19,5.10
2009,09,05,14,20,5.20
2009,09,05,14,21,13.20
2009,09,05,14,22,15.80
2009,09,05,14,23,19.90
2009,09,05,14,24,6.10
2009,09,05,14,25,3.50
2009,09,05,14,26,4.70
2009,09,05,14,27,8.70
2009,09,05,14,28,4.30
2009,09,05,14,29,9.20
2009,09,05,14,30,1.80
2009,09,05,14,31,1.90
2009,09,05,14,32,7.60
2009,09,05,14,33,8.10
2009,09,05,14,34,7.40
2009,09,05,14,35,7.00
2009,09,05,14,36,10.00
2009,09,05,14,37,12.80
2009,09,05,14,38,7.40
2009,09,05,14,39,4.20
2009,09,05,14,40,4.40
2009,09,05,14,41,20.30
2009,09,05,14,42,16.40
2009,09,05,14,43,5.10
2009,09,05,14,44,20.40
2009,09,05,14,45,12.90
2009,09,05,14,46,10.50
2009,09,05,14,47,13.80
2009,09,05,14,48,14.80
2009,09,05,14,49,14.60
2009,09,05,14,50,10.50
2009,09,05,14,51,17.20
2009,09,05,14,52,16.50
2009,09,05,14,53,9.60
2009,09,05,14,54,19.40
2009,09,05,14,55,11.50
2009,09,05,14,56,15.20
2009,09,05,14,57,15.80
2009,09,05,14,58,19.80
2009,09,05,14,59,16.70
2009,09,05,15,00,18.90
2009,09,05,15,01,17.00
2009,09,05,15,02,10.60
2009,09,05,15,03,18.80
2009,09,05,15,04,14.00
2009,09,05,15,05,9.70
2009,09,05,15,06,5.20
2009,09,05,15,07,9.30
2009,09,05,15,08,14.10
2009,09,05,15,09,9.10
2009,09,05,15,10,3.10
2009,09,05,15,11,11.80
2009,09,05,15,12,2.30
2009,09,05,15,13,3.60
2009,09,05,15,14,0.60
2009,09,05,15,15,6.40
2009,09,05,15,16,10.60
2009,09,05,15,17,2.30
2009,09,05,15,18,2.80
2009,09,05,15,19,0.60
2009,09,05,15,20,10.90
2009,09,05,15,21,7.30
2009,09,05,15,22,7.60
2009,09,05,15,23,7.30
2009,09,05,15,24,13.60
2009,09,05,15,25,8.10
2009,09,05,15,26,5.60
2009,09,05,15,27,8.80
2009,09,05,15,28,10.60
2009,09,05,15,29,17.00
2009,09,05,15,30,12.40
2009,09,05,15,31,4.70
2009,09,05,15,32,1.60
2009,09,05,15,33,0.00
2009,09,05,15,34,1.00
2009,09,05,15,35,6.60
2009,09,05,15,36,8.70
2009,09,05,15,37,7.20
2009,09,05,15,38,8.40
2009,09,05,15,39,8.00
2009,09,05,15,40,8.50
2009,09,05,15,41,1.50
2009,09,05,15,42,5.90
2009,09,05,15,43,6.30
2009,09,05,15,44,2.70
2009,09,05,15,45,3.30
2009,09,05,15,46,5.30
2009,09,05,15,47,4.00
2009,09,05,15,48,1.50
2009,09,05,15,49,0.20
2009,09,05,15,50,3.50
2009,09,05,15,51,3.80
2009,09,05,15,52,3.80
2009,09,05,15,53,1.90
2009,09,05,15,54,4.30
2009,09,05,15,55,2.20
2009,09,05,15,56,9.10
2009,09,05,15,57,20.30
2009,09,05,15,58,2.50
2009,09,05,15,59,4.10
2009,09,05,16,00,2.30
2009,09,05,16,01,4.30
2009,09,05,16,02,0.50
2009,09,05,16,03,0.30
2009,09,05,16,04,2.60
2009,09,05,16,05,1.10
2009,09,05,16,06,2.20
2009,09,05,16,07,4.50
2009,09,05,16,08,5.10
2009,09,05,16,09,11.10
2009,09,05,16,10,10.70
2009,09,05,16,11,17.10
2009,09,05,16,12,9.70
2009,09,05,16,13,11.90
2009,09,05,16,14,14.30
2009,09,05,16,15,9.20
2009,09,05,16,16,4.90
2009,09,05,16,17,5.20
2009,09,05,16,18,9.10
2009,09,05,16,19,4.40
2009,09,05,16,20,4.50
2009,09,05,16,21,6.00
2009,09,05,16,22,1.30
2009,09,05,16,23,0.20
2009,09,05,16,24,2.70
2009,09,05,16,25,7.30
2009,09,05,16,26,5.90
2009,09,05,16,27,0.20
2009,09,05,16,28,1.40
2009,09,05,16,29,3.30
2009,09,05,16,30,2.70
2009,09,05,16,31,5.20
2009,09,05,16,32,7.80
2009,09,05,16,33,11.00
2009,09,05,16,34,13.60
2009,09,05,16,35,9.40
2009,09,05,16,36,15.10
2009,09,05,16,37,10.80
2009,09,05,16,38,11.40
2009,09,05,16,39,5.00
2009,09,05,16,40,6.20
2009,09,05,16,41,5.10
2009,09,05,16,42,4.80
2009,09,05,16,43,3.10
2009,09,05,16,44,1.00
2009,09,05,16,45,0.20
2009,09,05,16,46,0.00
2009,09,05,16,47,2.40
2009,09,05,16,48,2.30
2009,09,05,16,49,4.80
2009,09,05,16,50,2.50
2009,09,05,16,51,3.00
2009,09,05,16,52,6.10
2009,09,05,16,53,6.30
2009,09,05,16,54,7.30
2009,09,05,16,55,6.00
2009,09,05,16,56,4.30
2009,09,05,16,57,2.00
2009,09,05,16,58,2.50
2009,09,05,16,59,3.00
2009,09,05,17,00,2.00
2009,09,05,17,01,0.00
2009,09,05,17,02,0.00
2009,09,05,17,03,0.00
2009,09,05,17,04,0.20
2009,09,05,17,05,2.50
2009,09,05,17,06,3.80
2009,09,05,17,07,4.50
2009,09,05,17,08,0.40
2009,09,05,17,09,0.80
2009,09,05,17,10,1.40
2009,09,05,17,11,3.40
2009,09,05,17,12,0.10
2009,09,05,17,13,0.10
2009,09,05,17,14,1.10
2009,09,05,17,15,0.40
2009,09,05,17,16,1.60
2009,09,05,17,17,2.80
2009,09,05,17,18,0.80
2009,09,05,17,19,0.30
2009,09,05,17,20,3.70
2009,09,05,17,21,0.20
2009,09,05,17,22,4.30
2009,09,05,17,23,1.60
2009,09,05,17,24,7.00
2009,09,05,17,25,6.60
2009,09,05,17,26,6.50
2009,09,05,17,27,7.90
2009,09,05,17,28,7.10
2009,09,05,17,29,4.50
2009,09,05,17,30,4.60
2009,09,05,17,31,3.40
2009,09,05,17,32,0.20
2009,09,05,17,33,3.00
2009,09,05,17,34,2.60
2009,09,05,17,35,0.60
2009,09,05,17,36,0.50
2009,09,05,17,37,1.80
2009,09,05,17,38,4.00
2009,09,05,17,39,4.40
2009,09,05,17,40,6.00
2009,09,05,17,41,5.10
2009,09,05,17,42,0.90
2009,09,05,17,43,0.30
2009,09,05,17,44,5.10
2009,09,05,17,45,5.40
2009,09,05,17,46,2.40
2009,09,05,17,47,2.70
2009,09,05,17,48,3.40
2009,09,05,17,49,2.60
2009,09,05,17,50,4.40
2009,09,05,17,51,4.10
2009,09,05,17,52,5.80
2009,09,05,17,53,3.30
2009,09,05,17,54,3.40
2009,09,05,17,55,2.50
2009,09,05,17,56,4.60
2009,09,05,17,57,7.20
2009,09,05,17,58,5.60
2009,09,05,17,59,2.80
2009,09,05,18,00,7.60
2009,09,05,18,01,4.40
2009,09,05,18,02,4.40
2009,09,05,18,03,4.20
2009,09,05,18,04,2.40
2009,09,05,18,05,0.20
2009,09,05,18,06,3.70
2009,09,05,18,07,5.20
2009,09,05,18,08,3.50